Weather Roundup
Issued by NWS Corpus Christi, TX

Home | Current Version | Previous Version | Text Only | Print | Product List | Glossary On
Versions: 1 2 3 4 5 6 7 8 9 10 11 12 13 14 15 16 17 18 19 20 21 22 23 24 25 26 27 28 29 30 31 32 33 34 35 36 37 38 39 40 41 42 43 44 45 46 47 48 49 50
000
ASUS44 KCRP 010410
HRRCRP

SOUTH TEXAS REGIONAL WEATHER ROUNDUP
NATIONAL WEATHER SERVICE CORPUS CHRISTI TX
1100 PM CDT TUE SEP 30 2014


TXZ229>244-010500-
...CORPUS CHRISTI AREA OBSERVATIONS...

CITY           SKY/WX    TMP DP  RH WIND       PRES   REMARKS
CORPUS CHRISTI PTCLDY    77  74  90 CALM      29.79R
NAS CORPUS CHR PTCLDY    79  77  94 SE6       29.78R
ROCKPORT       CLEAR     80  77  90 S3        29.79R
KINGSVILLE NAS PTCLDY    77  77 100 E3        29.79R
ALICE          CLEAR     76  74  93 SE3       29.79R
FALFURRIAS     CLEAR     75  74  96 CALM      29.79R
$$

...VICTORIA AREA OBSERVATIONS...

CITY           SKY/WX    TMP DP  RH WIND       PRES   REMARKS
VICTORIA       CLEAR     77  75  93 E5        29.80S
BEEVILLE       FAIR      76  75  99 SE3       29.80S
PLEASANTON     CLEAR     78  71  78 SE5       29.80S
SAN ANTONIO    PTCLDY    77  70  79 SE7       29.81S
$$

...LAREDO AREA OBSERVATIONS...

CITY           SKY/WX    TMP DP  RH WIND       PRES   REMARKS
LAREDO         CLEAR     80  74  82 SE8       29.81R
COTULLA        CLEAR     79  71  76 SE8       29.79S
DEL RIO        CLEAR     78  66  66 SE8       29.77R
MCALLEN        CLEAR     79  75  87 SE7       29.79R
HEBBRONVILLE   CLEAR     76  73  90 E5        29.82R
$$

...OTHER TEXAS OBSERVATIONS...

CITY           SKY/WX    TMP DP  RH WIND       PRES   REMARKS
BROWNSVILLE    CLEAR     77  77 100 SE3       29.80R
HOUSTON        PTCLDY    76  74  93 SE6       29.80S
COL. STATION   CLEAR     76  71  85 S7        29.81S
AUSTIN         CLEAR     77  71  82 S7        29.80R
WACO           CLEAR     79  68  69 S8        29.79R
FORT WORTH     CLEAR     82  67  60 SE15G21   29.76F
WICHITA FALLS  CLEAR     77  55  46 S13       29.73F
LUBBOCK        PTCLDY    68  53  58 W6        29.80S
EL PASO        CLEAR     75  40  28 NE6       29.88R
$$

...MARINE OBSERVATIONS...

STATION/POSITION TIME  SKY/WX   TEMP    WIND        PRES    VSBY  WAVE   SWELL
                                AIR SEA DIR/SP/G                  HT/PER HT/PER
                 (UTC)          (F)     (DEG/KT/KT) (MB)    (MI)  (FT/S) (FT/S)
PORT ARANSAS     0400            81 81  130/  6/  7 1009.3R
BUOY 90 E PORT A 0400            82 84  130/  8/ 10 1009.1S         1/ 6   2/ 6
BUOY 45 SE BAFFI 0400            82 83  150/  6/  8 1008.2R         1/ 6   2/ 6
BUOY 200 E PT IS 0400            83 84  160/ 12/ 12 1010.0R         1/ 6
BUOY 15 E GALVES 0400            81 82  130/ 12/ 14 1009.0R         2/ 4
$$


USA.gov is the U.S. government's official web portal to all federal, state and local government web resources and services.